contact:dominique.lefevre@mio.osupytheas.fr, maurice.libes@osupytheas.fr, didier.mallarino@osupytheas.fr
Project:EMSO http://www.emso-fr.org/EMSO-France
Depth: 2436.0 m
Title:EMSO Ligure Ouest : Data MII capteur AQUADOPP
Date,Latitude,Longitude,X_East,Y_North,Z_Up,Amplitude_X,Amplitude_Y,Amplitude_Z,Batterie,SoundSpeed,Heading,Pitch,Roll,Pressure,TIS,Speed,Direction
, degrees North, degrees East, m.s-1, m.s-1,m.s-1, 1, 1, 1, Volt, m.s-1, degree, degree, degree, dbar, degree_C, m.s-1, degree
2019-11-08T13:44:08,42.805,6.029,0.055,0.035,-0.013,101.0,104.0,97.0,13.4,1505.1,326.8,-0.8,1.8,2470.593,13.27,0.065,57.5
2019-11-08T13:47:11,42.805,6.029,0.063,0.008,-0.031,102.0,103.0,98.0,13.3,1505.2,327.0,-0.7,1.9,2470.455,13.29,0.063,82.8
2019-11-08T13:50:14,42.805,6.029,0.075,0.015,-0.042,99.0,104.0,100.0,13.4,1505.2,326.2,-0.8,1.8,2470.372,13.3,0.076,78.7
2019-11-08T13:53:17,42.805,6.029,0.072,0.016,0.024,100.0,104.0,99.0,13.4,1505.3,326.6,-0.7,1.8,2470.287,13.31,0.073,77.5
2019-11-08T13:56:20,42.805,6.029,0.067,0.002,-0.035,101.0,104.0,99.0,13.4,1505.3,326.6,-0.7,1.9,2470.231,13.31,0.067,88.3
2019-11-08T13:59:23,42.805,6.029,0.059,-0.003,-0.022,101.0,105.0,98.0,13.4,1505.3,325.4,-0.7,1.8,2470.19,13.32,0.059,92.9
2019-11-08T14:09:08,42.805,6.029,0.012,0.047,0.01,100.0,105.0,97.0,13.3,1505.2,326.5,-0.8,1.8,2470.195,13.29,0.048,14.3
2019-11-08T14:12:11,42.805,6.029,0.062,0.025,0.025,100.0,106.0,97.0,13.4,1505.2,324.7,-0.8,1.8,2470.169,13.3,0.066,68.0
2019-11-08T14:15:14,42.805,6.029,0.012,0.014,-0.039,99.0,106.0,98.0,13.4,1505.3,326.5,-0.7,1.8,2470.151,13.31,0.018,40.6
2019-11-08T14:18:17,42.805,6.029,0.068,0.018,-0.013,99.0,106.0,98.0,13.4,1505.3,328.1,-0.7,1.8,2470.108,13.31,0.07,75.2
2019-11-08T14:21:20,42.805,6.029,-0.009,0.023,-0.064,100.0,105.0,98.0,13.4,1505.3,326.8,-0.7,1.8,2470.093,13.32,0.024,338.6
2019-11-08T14:24:23,42.805,6.029,0.023,0.031,-0.022,100.0,104.0,98.0,13.4,1505.3,324.9,-0.7,1.8,2470.077,13.32,0.038,36.6
2019-11-08T14:27:26,42.805,6.029,0.026,0.012,-0.065,100.0,104.0,98.0,13.3,1505.3,324.8,-0.7,1.9,2470.065,13.32,0.028,65.2
2019-11-08T14:30:29,42.805,6.029,0.046,0.007,-0.016,98.0,105.0,99.0,13.4,1505.3,326.5,-0.7,1.9,2470.062,13.32,0.046,81.3
2019-11-08T14:33:32,42.805,6.029,0.028,0.009,-0.02,99.0,104.0,98.0,13.4,1505.3,326.8,-0.7,1.8,2470.032,13.32,0.029,72.2
2019-11-08T14:36:35,42.805,6.029,0.09,0.01,0.008,101.0,104.0,98.0,13.4,1505.3,323.9,-0.7,1.8,2470.055,13.32,0.09,83.7
2019-11-08T14:39:38,42.805,6.029,0.032,0.018,-0.064,99.0,104.0,98.0,13.3,1505.3,326.3,-0.7,1.8,2470.05,13.32,0.036,60.6
2019-11-08T14:42:41,42.805,6.029,0.073,-0.004,0.0,100.0,104.0,99.0,13.4,1505.3,325.3,-0.7,1.8,2469.989,13.32,0.073,93.1
2019-11-08T14:45:44,42.805,6.029,0.032,0.014,-0.039,100.0,104.0,98.0,13.4,1505.3,325.8,-0.7,1.8,2470.008,13.32,0.034,66.4
2019-11-08T14:48:47,42.805,6.029,0.027,0.019,-0.047,99.0,105.0,99.0,13.4,1505.3,324.5,-0.7,1.8,2470.036,13.32,0.033,54.9
2019-11-08T14:51:50,42.805,6.029,0.05,0.015,-0.019,101.0,106.0,97.0,13.4,1505.3,325.5,-0.7,1.8,2470.045,13.32,0.052,73.3
2019-11-08T14:54:53,42.805,6.029,0.045,0.02,-0.02,101.0,105.0,98.0,13.3,1505.3,328.1,-0.6,1.8,2470.066,13.32,0.049,66.0
2019-11-08T14:57:56,42.805,6.029,0.05,0.017,-0.02,99.0,104.0,99.0,13.3,1505.3,323.6,-0.7,1.8,2469.991,13.32,0.052,71.2
2019-11-08T15:09:08,42.805,6.029,0.045,0.006,-0.035,100.0,105.0,98.0,13.4,1505.2,327.9,-0.8,1.8,2470.164,13.29,0.045,82.4
2019-11-08T15:12:11,42.805,6.029,0.043,0.002,-0.034,100.0,104.0,98.0,13.4,1505.2,323.8,-0.7,1.8,2470.144,13.3,0.043,87.3
2019-11-08T15:15:14,42.805,6.029,0.055,0.009,-0.03,100.0,105.0,98.0,13.3,1505.3,323.8,-0.7,1.9,2470.186,13.31,0.055,80.7
2019-11-08T15:18:17,42.805,6.029,0.034,0.014,-0.029,99.0,105.0,98.0,13.3,1505.3,326.7,-0.8,1.8,2470.154,13.31,0.036,67.6
2019-11-08T15:21:20,42.805,6.029,0.011,0.029,0.008,98.0,104.0,99.0,13.3,1505.3,326.5,-0.7,1.8,2470.144,13.32,0.031,20.8
2019-11-08T15:24:23,42.805,6.029,0.059,0.0,-0.005,100.0,106.0,98.0,13.3,1505.3,327.4,-0.7,1.9,2470.129,13.32,0.058,90.0
2019-11-08T15:27:26,42.805,6.029,0.051,0.007,0.01,100.0,105.0,98.0,13.4,1505.3,324.2,-0.7,1.8,2470.105,13.32,0.051,82.2
2019-11-08T15:30:29,42.805,6.029,0.043,-0.005,-0.006,100.0,105.0,98.0,13.3,1505.3,325.8,-0.7,1.8,2470.086,13.32,0.043,96.6
2019-11-08T15:33:32,42.805,6.029,0.038,0.015,0.0,100.0,106.0,98.0,13.4,1505.3,326.5,-0.7,1.9,2470.145,13.32,0.04,68.5
2019-11-08T15:36:35,42.805,6.029,0.047,0.011,-0.003,100.0,104.0,98.0,13.4,1505.3,327.2,-0.7,1.8,2470.09,13.32,0.048,76.8
2019-11-08T15:39:38,42.805,6.029,0.045,0.005,-0.015,100.0,106.0,98.0,13.4,1505.3,327.7,-0.7,1.8,2470.102,13.32,0.045,83.7
2019-11-08T15:42:41,42.805,6.029,0.039,0.007,0.007,99.0,104.0,98.0,13.4,1505.3,324.4,-0.7,1.9,2470.125,13.32,0.039,79.8
2019-11-08T15:45:44,42.805,6.029,0.049,0.002,0.004,100.0,105.0,97.0,13.4,1505.3,326.4,-0.7,1.8,2470.163,13.32,0.049,87.7
2019-11-08T15:48:47,42.805,6.029,0.018,-0.001,-0.024,100.0,105.0,98.0,13.3,1505.3,324.8,-0.7,1.9,2470.114,13.32,0.018,93.2
2019-11-08T15:51:50,42.805,6.029,0.048,-0.008,-0.052,100.0,106.0,98.0,13.4,1505.3,327.6,-0.7,1.8,2470.106,13.32,0.048,99.5
2019-11-08T15:54:53,42.805,6.029,0.053,0.006,-0.012,100.0,106.0,98.0,13.3,1505.3,324.3,-0.7,1.8,2470.101,13.32,0.053,83.5
2019-11-08T15:57:56,42.805,6.029,0.05,0.001,0.011,98.0,107.0,98.0,13.4,1505.3,322.8,-0.8,1.8,2470.1,13.32,0.05,88.9
2019-11-08T16:09:08,42.805,6.029,0.069,0.005,-0.011,99.0,108.0,98.0,13.4,1505.2,324.4,-0.8,1.8,2470.222,13.29,0.069,85.9
2019-11-08T16:12:11,42.805,6.029,0.046,0.001,-0.004,99.0,106.0,98.0,13.4,1505.2,327.8,-0.7,1.8,2470.176,13.3,0.046,88.8
2019-11-08T16:15:14,42.805,6.029,0.036,0.0,-0.043,100.0,106.0,98.0,13.4,1505.3,323.2,-0.7,1.8,2470.209,13.31,0.036,90.0
2019-11-08T16:18:17,42.805,6.029,0.049,0.0,-0.074,101.0,108.0,97.0,13.4,1505.3,324.5,-0.7,1.8,2470.173,13.31,0.049,90.0
2019-11-08T16:21:20,42.805,6.029,0.077,-0.001,-0.005,98.0,108.0,98.0,13.4,1505.3,323.4,-0.7,1.8,2470.175,13.32,0.077,90.7
2019-11-08T16:24:23,42.805,6.029,0.028,-0.002,-0.05,98.0,106.0,99.0,13.4,1505.3,325.9,-0.7,1.8,2470.128,13.32,0.028,94.1
2019-11-08T16:27:26,42.805,6.029,0.035,0.02,-0.003,100.0,106.0,98.0,13.4,1505.3,328.0,-0.8,1.8,2470.163,13.32,0.04,60.3
2019-11-08T16:30:29,42.805,6.029,0.055,-0.004,-0.013,99.0,109.0,98.0,13.4,1505.3,324.4,-0.7,1.8,2470.194,13.32,0.055,94.2
2019-11-08T16:33:32,42.805,6.029,0.078,0.003,-0.016,99.0,107.0,97.0,13.4,1505.3,324.1,-0.7,1.9,2470.195,13.32,0.078,87.8
2019-11-08T16:36:35,42.805,6.029,0.051,-0.017,-0.034,99.0,108.0,98.0,13.4,1505.3,327.7,-0.7,1.8,2470.161,13.32,0.053,108.4
2019-11-08T16:39:38,42.805,6.029,0.044,-0.01,-0.027,98.0,107.0,98.0,13.4,1505.3,325.2,-0.7,1.8,2470.201,13.32,0.045,102.8
2019-11-08T16:42:41,42.805,6.029,0.041,-0.004,-0.043,99.0,107.0,98.0,13.4,1505.3,326.6,-0.7,1.8,2470.189,13.32,0.041,95.6
2019-11-08T16:45:44,42.805,6.029,0.034,0.005,-0.027,99.0,107.0,98.0,13.4,1505.3,324.6,-0.7,1.8,2470.168,13.32,0.034,81.6
2019-11-08T16:48:47,42.805,6.029,0.028,-0.005,-0.051,99.0,107.0,99.0,13.4,1505.3,327.9,-0.7,1.9,2470.119,13.32,0.028,100.1
2019-11-08T16:51:50,42.805,6.029,0.057,-0.002,0.019,100.0,108.0,98.0,13.3,1505.3,328.0,-0.7,1.8,2470.137,13.32,0.057,92.0
2019-11-08T16:54:53,42.805,6.029,0.052,0.005,-0.02,100.0,106.0,98.0,13.4,1505.3,328.5,-0.7,1.8,2470.116,13.32,0.052,84.5
2019-11-08T16:57:56,42.805,6.029,0.035,-0.001,-0.035,98.0,108.0,98.0,13.4,1505.3,328.3,-0.7,1.8,2470.201,13.32,0.035,91.6
2019-11-08T17:09:08,42.805,6.029,0.046,-0.022,0.028,100.0,106.0,98.0,13.4,1505.2,324.2,-0.8,1.8,2470.198,13.29,0.05,115.6
2019-11-08T17:12:11,42.805,6.029,0.043,-0.013,-0.011,100.0,107.0,98.0,13.4,1505.2,323.3,-0.7,1.8,2470.274,13.3,0.044,106.8
2019-11-08T17:15:14,42.805,6.029,0.077,-0.001,-0.033,100.0,106.0,97.0,13.4,1505.3,325.1,-0.7,1.8,2470.215,13.31,0.077,90.7
2019-11-08T17:18:17,42.805,6.029,0.061,-0.003,0.006,102.0,104.0,98.0,13.4,1505.3,326.8,-0.7,1.8,2470.172,13.31,0.061,92.8
2019-11-08T17:21:20,42.805,6.029,0.044,-0.008,-0.014,100.0,106.0,97.0,13.3,1505.3,323.6,-0.7,1.8,2470.163,13.32,0.044,100.3
2019-11-08T17:24:23,42.805,6.029,0.044,-0.014,-0.015,100.0,104.0,98.0,13.3,1505.3,326.0,-0.7,1.9,2470.19,13.32,0.046,107.6
2019-11-08T17:27:26,42.805,6.029,0.032,-0.003,-0.017,99.0,106.0,98.0,13.4,1505.3,324.6,-0.7,1.9,2470.189,13.32,0.032,95.4
2019-11-08T17:30:29,42.805,6.029,0.06,0.002,-0.011,100.0,105.0,98.0,13.4,1505.3,324.0,-0.7,1.8,2470.179,13.32,0.06,88.1
2019-11-08T17:33:32,42.805,6.029,0.03,-0.013,-0.005,99.0,105.0,98.0,13.4,1505.3,326.5,-0.7,1.8,2470.164,13.32,0.032,113.4
2019-11-08T17:36:35,42.805,6.029,0.057,0.008,0.013,100.0,106.0,98.0,13.4,1505.3,328.2,-0.7,1.8,2470.123,13.32,0.057,82.0
2019-11-08T17:39:38,42.805,6.029,0.035,-0.006,-0.039,99.0,105.0,98.0,13.3,1505.3,324.7,-0.7,1.8,2470.196,13.32,0.035,99.7
2019-11-08T17:42:41,42.805,6.029,0.076,-0.009,0.004,100.0,104.0,98.0,13.4,1505.3,327.0,-0.7,1.8,2470.149,13.32,0.076,96.8
2019-11-08T17:45:44,42.805,6.029,0.056,0.006,-0.033,101.0,105.0,97.0,13.4,1505.3,326.1,-0.7,1.8,2470.151,13.32,0.056,83.9
2019-11-08T17:48:47,42.805,6.029,0.071,-0.008,-0.017,99.0,104.0,99.0,13.3,1505.3,327.0,-0.7,1.8,2470.12,13.32,0.071,96.4
2019-11-08T17:51:50,42.805,6.029,0.091,-0.021,-0.024,99.0,103.0,97.0,13.4,1505.3,328.4,-0.7,1.8,2470.159,13.32,0.093,103.0
2019-11-08T18:04:08,42.805,6.029,0.105,0.019,0.01,99.0,104.0,99.0,13.4,1505.2,323.1,-0.8,1.9,2470.326,13.28,0.106,79.7
2019-11-08T19:04:08,42.805,6.029,0.064,-0.016,0.012,100.0,103.0,98.0,13.4,1505.1,323.8,-0.8,1.8,2470.676,13.27,0.065,104.0
2019-11-08T19:07:11,42.805,6.029,0.079,-0.017,-0.015,100.0,102.0,98.0,13.4,1505.2,326.2,-0.7,1.8,2470.579,13.29,0.08,102.1
2019-11-08T19:10:14,42.805,6.029,0.075,-0.006,-0.042,99.0,102.0,98.0,13.4,1505.2,326.1,-0.7,1.8,2470.426,13.3,0.075,94.6
2019-11-08T19:13:17,42.805,6.029,0.096,-0.006,0.006,100.0,102.0,98.0,13.3,1505.3,325.9,-0.7,1.8,2470.394,13.31,0.096,93.6
2019-11-08T19:16:20,42.805,6.029,0.084,-0.004,-0.017,101.0,101.0,97.0,13.4,1505.3,324.8,-0.7,1.8,2470.334,13.31,0.084,92.7
2019-11-08T19:19:23,42.805,6.029,0.074,-0.01,-0.043,100.0,102.0,99.0,13.4,1505.3,323.5,-0.7,1.8,2470.291,13.31,0.074,97.7
2019-11-08T19:22:26,42.805,6.029,0.068,-0.001,-0.033,99.0,102.0,98.0,13.4,1505.3,324.8,-0.7,1.8,2470.264,13.31,0.068,90.8
2019-11-08T19:25:29,42.805,6.029,0.082,0.007,-0.047,100.0,102.0,98.0,13.3,1505.3,328.6,-0.7,1.8,2470.216,13.32,0.082,85.1
2019-11-08T19:28:32,42.805,6.029,0.059,0.008,-0.022,100.0,102.0,98.0,13.4,1505.3,324.5,-0.7,1.8,2470.181,13.32,0.059,82.3
2019-11-08T19:31:35,42.805,6.029,0.085,-0.013,-0.023,99.0,101.0,98.0,13.4,1505.3,326.6,-0.7,1.8,2470.164,13.32,0.085,98.7
2019-11-08T19:34:38,42.805,6.029,0.087,0.009,0.024,101.0,101.0,97.0,13.4,1505.3,325.9,-0.7,1.8,2470.155,13.32,0.087,84.1
2019-11-08T19:37:41,42.805,6.029,0.072,-0.016,-0.053,101.0,100.0,98.0,13.4,1505.3,323.9,-0.7,1.9,2470.097,13.32,0.073,102.5
2019-11-08T19:40:44,42.805,6.029,0.057,-0.017,-0.002,99.0,101.0,97.0,13.3,1505.3,326.9,-0.7,1.8,2470.09,13.32,0.059,106.6
2019-11-08T19:43:47,42.805,6.029,0.084,0.001,-0.007,100.0,103.0,97.0,13.4,1505.3,325.0,-0.7,1.8,2470.076,13.32,0.084,89.3
2019-11-08T19:46:50,42.805,6.029,0.069,-0.003,0.004,99.0,102.0,98.0,13.4,1505.3,324.7,-0.7,1.8,2470.088,13.32,0.069,92.5
2019-11-08T19:49:53,42.805,6.029,0.082,-0.011,-0.014,100.0,102.0,98.0,13.4,1505.3,327.6,-0.7,1.8,2470.075,13.32,0.082,97.6
2019-11-08T19:52:56,42.805,6.029,0.084,-0.032,-0.035,100.0,101.0,98.0,13.4,1505.3,324.7,-0.7,1.8,2470.075,13.32,0.089,110.9
2019-11-08T19:55:59,42.805,6.029,0.086,-0.023,-0.047,100.0,101.0,98.0,13.4,1505.3,325.9,-0.7,1.8,2470.064,13.32,0.089,105.0
2019-11-08T19:59:02,42.805,6.029,0.065,-0.012,0.011,99.0,101.0,98.0,13.3,1505.3,327.9,-0.7,1.9,2470.076,13.32,0.066,100.5
2019-11-08T20:09:08,42.805,6.029,0.074,-0.025,-0.01,100.0,101.0,98.0,13.3,1505.2,326.6,-0.7,1.8,2470.151,13.29,0.078,108.7
2019-11-08T20:12:11,42.805,6.029,0.082,-0.034,-0.02,98.0,103.0,98.0,13.4,1505.2,328.4,-0.7,1.8,2470.148,13.3,0.088,112.5
2019-11-08T20:15:14,42.805,6.029,0.09,-0.026,0.0,100.0,102.0,98.0,13.4,1505.3,323.8,-0.7,1.8,2470.115,13.31,0.093,106.1
2019-11-08T20:18:17,42.805,6.029,0.077,-0.032,-0.01,101.0,102.0,98.0,13.3,1505.3,326.3,-0.7,1.9,2470.137,13.31,0.083,112.6
2019-11-08T20:21:20,42.805,6.029,0.061,-0.018,-0.039,100.0,100.0,98.0,13.4,1505.3,324.9,-0.7,1.9,2470.108,13.31,0.063,106.4
2019-11-08T20:24:23,42.805,6.029,0.067,-0.009,-0.017,100.0,102.0,98.0,13.4,1505.3,328.0,-0.7,1.9,2470.083,13.32,0.067,97.7
2019-11-08T20:27:26,42.805,6.029,0.056,-0.032,-0.041,100.0,102.0,97.0,13.4,1505.3,324.7,-0.7,1.9,2470.12,13.32,0.064,119.7
2019-11-08T20:30:29,42.805,6.029,0.074,-0.024,-0.027,100.0,102.0,98.0,13.4,1505.3,328.5,-0.7,1.8,2470.078,13.32,0.077,108.0
2019-11-08T20:33:32,42.805,6.029,0.04,-0.024,-0.033,100.0,102.0,98.0,13.4,1505.3,323.6,-0.7,1.8,2470.03,13.32,0.046,121.0
2019-11-08T20:36:35,42.805,6.029,0.065,-0.012,-0.006,99.0,101.0,98.0,13.3,1505.3,323.4,-0.7,1.8,2470.061,13.32,0.066,100.5
2019-11-08T20:39:38,42.805,6.029,0.07,-0.01,-0.003,100.0,101.0,98.0,13.4,1505.3,324.7,-0.7,1.8,2470.03,13.32,0.07,98.1
2019-11-08T20:42:41,42.805,6.029,0.087,-0.015,-0.039,100.0,102.0,98.0,13.4,1505.3,323.6,-0.7,1.8,2470.074,13.32,0.088,99.8
2019-11-08T20:45:44,42.805,6.029,0.068,-0.023,-0.02,99.0,102.0,98.0,13.4,1505.3,325.4,-0.7,1.8,2470.04,13.32,0.071,108.7
2019-11-08T20:48:47,42.805,6.029,0.081,-0.026,-0.02,100.0,101.0,98.0,13.4,1505.3,323.4,-0.7,1.8,2470.026,13.32,0.085,107.8
2019-11-08T20:51:50,42.805,6.029,0.062,-0.037,-0.043,98.0,101.0,98.0,13.4,1505.3,327.7,-0.7,1.8,2470.039,13.32,0.072,120.8
2019-11-08T20:54:53,42.805,6.029,0.072,0.0,-0.006,99.0,100.0,97.0,13.4,1505.3,324.3,-0.7,1.8,2470.041,13.32,0.071,90.0
2019-11-08T20:57:56,42.805,6.029,0.072,-0.007,-0.005,100.0,101.0,99.0,13.4,1505.3,324.4,-0.7,1.8,2470.01,13.32,0.072,95.5
2019-11-08T21:09:08,42.805,6.029,0.061,-0.025,-0.041,101.0,100.0,99.0,13.4,1505.2,324.7,-0.7,1.8,2470.08,13.29,0.065,112.3
2019-11-08T21:12:11,42.805,6.029,0.043,-0.006,0.003,100.0,101.0,99.0,13.4,1505.2,326.3,-0.7,1.8,2470.088,13.3,0.043,97.9
2019-11-08T21:15:14,42.805,6.029,0.082,-0.026,-0.021,101.0,101.0,97.0,13.4,1505.3,327.2,-0.7,1.9,2470.105,13.31,0.086,107.6
2019-11-08T21:18:17,42.805,6.029,0.057,-0.044,-0.044,100.0,101.0,98.0,13.4,1505.3,325.5,-0.8,1.8,2470.094,13.31,0.072,127.7
2019-11-08T21:21:20,42.805,6.029,0.045,-0.04,-0.059,99.0,101.0,98.0,13.4,1505.3,325.1,-0.7,1.8,2470.076,13.31,0.06,131.6
2019-11-08T21:24:23,42.805,6.029,0.07,-0.005,-0.031,98.0,101.0,100.0,13.4,1505.3,327.2,-0.7,1.9,2470.054,13.32,0.07,94.1
2019-11-08T21:27:26,42.805,6.029,0.068,-0.035,-0.012,97.0,103.0,99.0,13.4,1505.3,324.7,-0.7,1.8,2470.036,13.32,0.076,117.2
2019-11-08T21:30:29,42.805,6.029,0.07,-0.028,-0.036,99.0,102.0,97.0,13.4,1505.3,328.0,-0.7,1.8,2470.049,13.32,0.075,111.8
2019-11-08T21:33:32,42.805,6.029,0.079,-0.014,0.006,100.0,102.0,98.0,13.3,1505.3,325.3,-0.7,1.9,2470.065,13.32,0.08,100.0
2019-11-08T21:36:35,42.805,6.029,0.062,-0.017,-0.03,99.0,101.0,98.0,13.3,1505.3,326.0,-0.7,1.8,2470.035,13.32,0.064,105.3
2019-11-08T21:39:38,42.805,6.029,0.064,-0.018,-0.019,99.0,101.0,98.0,13.3,1505.3,326.5,-0.8,1.8,2470.004,13.32,0.066,105.7
2019-11-08T21:42:41,42.805,6.029,0.05,-0.063,-0.042,99.0,101.0,99.0,13.4,1505.3,327.0,-0.7,1.8,2470.03,13.32,0.08,141.6
2019-11-08T21:45:44,42.805,6.029,0.056,-0.013,-0.032,100.0,101.0,98.0,13.4,1505.3,327.5,-0.7,1.8,2470.018,13.32,0.057,103.1
2019-11-08T21:48:47,42.805,6.029,0.059,-0.031,-0.032,100.0,102.0,98.0,13.4,1505.3,323.6,-0.7,1.9,2470.01,13.32,0.066,117.7
2019-11-08T22:04:08,42.805,6.029,0.052,-0.003,-0.018,100.0,102.0,98.0,13.4,1505.2,323.3,-0.8,1.8,2470.244,13.28,0.052,93.3
2019-11-08T22:07:11,42.805,6.029,0.074,-0.016,-0.021,100.0,102.0,98.0,13.3,1505.2,327.0,-0.7,1.9,2470.222,13.29,0.075,102.2
2019-11-08T22:10:14,42.805,6.029,0.078,-0.031,-0.026,99.0,101.0,99.0,13.4,1505.2,328.1,-0.7,1.8,2470.191,13.3,0.083,111.7
2019-11-08T22:13:17,42.805,6.029,0.069,-0.037,-0.019,99.0,100.0,98.0,13.3,1505.3,325.5,-0.7,1.8,2470.161,13.31,0.078,118.2
2019-11-08T22:16:20,42.805,6.029,0.065,-0.052,-0.025,100.0,101.0,97.0,13.4,1505.3,324.5,-0.7,1.8,2470.134,13.31,0.083,128.7
2019-11-08T22:19:23,42.805,6.029,0.081,-0.024,-0.014,99.0,101.0,98.0,13.4,1505.3,326.7,-0.7,1.8,2470.106,13.31,0.084,106.5
2019-11-08T22:22:26,42.805,6.029,0.075,-0.018,-0.036,100.0,101.0,98.0,13.4,1505.3,324.1,-0.7,1.8,2470.111,13.32,0.077,103.5
2019-11-08T22:25:29,42.805,6.029,0.077,-0.037,-0.031,99.0,101.0,99.0,13.4,1505.3,326.3,-0.7,1.8,2470.004,13.32,0.085,115.7
2019-11-08T22:28:32,42.805,6.029,0.08,-0.028,-0.031,101.0,100.0,97.0,13.3,1505.3,327.2,-0.7,1.8,2470.027,13.32,0.084,109.3
2019-11-08T22:31:35,42.805,6.029,0.067,-0.023,-0.066,99.0,101.0,98.0,13.3,1505.3,323.9,-0.7,1.8,2470.031,13.32,0.07,108.9
2019-11-08T22:34:38,42.805,6.029,0.063,-0.047,-0.026,99.0,100.0,98.0,13.4,1505.3,325.5,-0.7,1.8,2470.034,13.32,0.078,126.7
2019-11-08T22:37:41,42.805,6.029,0.051,-0.016,-0.03,99.0,102.0,98.0,13.4,1505.3,326.6,-0.7,1.8,2470.072,13.32,0.053,107.4
2019-11-08T22:40:44,42.805,6.029,0.069,-0.017,-0.042,99.0,102.0,97.0,13.4,1505.3,326.6,-0.7,1.9,2470.006,13.32,0.071,103.8
2019-11-08T22:43:47,42.805,6.029,0.067,-0.013,-0.032,100.0,100.0,98.0,13.4,1505.3,327.3,-0.7,1.8,2470.002,13.32,0.068,101.0
2019-11-08T22:46:50,42.805,6.029,0.067,-0.036,-0.044,100.0,101.0,98.0,13.4,1505.3,328.0,-0.7,1.8,2470.014,13.32,0.076,118.3
2019-11-08T22:49:53,42.805,6.029,0.082,-0.033,-0.041,100.0,101.0,98.0,13.4,1505.3,324.6,-0.7,1.8,2470.035,13.32,0.088,111.9
2019-11-08T22:52:56,42.805,6.029,0.072,-0.03,-0.035,99.0,101.0,98.0,13.3,1505.3,323.0,-0.7,1.8,2469.998,13.32,0.077,112.6
2019-11-08T22:55:59,42.805,6.029,0.041,-0.038,-0.051,100.0,102.0,98.0,13.3,1505.3,326.4,-0.7,1.8,2469.97,13.32,0.055,132.8
2019-11-08T22:59:02,42.805,6.029,0.057,-0.009,-0.037,101.0,101.0,98.0,13.3,1505.3,327.3,-0.7,1.8,2470.02,13.32,0.057,99.0
2019-11-08T23:09:08,42.805,6.029,0.064,-0.05,-0.045,100.0,100.0,98.0,13.3,1505.2,326.9,-0.8,1.9,2470.096,13.29,0.081,128.0
2019-11-08T23:12:11,42.805,6.029,0.065,-0.021,-0.059,99.0,100.0,98.0,13.4,1505.2,325.3,-0.7,1.8,2470.107,13.3,0.068,107.9
2019-11-08T23:15:14,42.805,6.029,0.088,-0.023,-0.039,99.0,100.0,98.0,13.4,1505.3,326.0,-0.7,1.8,2470.082,13.31,0.09,104.6
2019-11-08T23:18:17,42.805,6.029,0.066,-0.034,-0.014,100.0,101.0,97.0,13.4,1505.3,323.9,-0.7,1.8,2470.076,13.31,0.074,117.3
2019-11-08T23:21:20,42.805,6.029,0.06,-0.024,-0.006,100.0,101.0,97.0,13.3,1505.3,325.0,-0.7,1.8,2470.047,13.31,0.064,111.8
2019-11-08T23:24:23,42.805,6.029,0.072,-0.026,-0.001,99.0,101.0,98.0,13.3,1505.3,326.4,-0.7,1.9,2470.052,13.32,0.076,109.9
2019-11-08T23:27:26,42.805,6.029,0.05,-0.03,-0.058,99.0,100.0,98.0,13.4,1505.3,327.5,-0.7,1.8,2470.023,13.32,0.058,121.0
2019-11-08T23:30:29,42.805,6.029,0.068,-0.03,-0.018,100.0,100.0,99.0,13.3,1505.3,326.4,-0.7,1.8,2470.014,13.32,0.074,113.8
2019-11-08T23:33:32,42.805,6.029,0.03,-0.028,-0.07,99.0,101.0,98.0,13.4,1505.3,325.0,-0.7,1.9,2469.984,13.32,0.041,133.0
2019-11-08T23:36:35,42.805,6.029,0.044,-0.024,-0.06,100.0,100.0,98.0,13.3,1505.3,327.2,-0.7,1.8,2470.007,13.32,0.05,118.6
2019-11-08T23:39:38,42.805,6.029,0.08,-0.034,-0.04,98.0,101.0,98.0,13.3,1505.3,325.0,-0.7,1.8,2469.967,13.32,0.086,113.0
2019-11-08T23:42:41,42.805,6.029,0.079,-0.035,-0.023,100.0,101.0,97.0,13.3,1505.3,324.9,-0.7,1.8,2470.009,13.32,0.086,113.9
2019-11-08T23:45:44,42.805,6.029,0.073,-0.015,-0.033,100.0,101.0,97.0,13.4,1505.3,327.8,-0.7,1.8,2470.0,13.32,0.074,101.6
2019-11-08T23:48:47,42.805,6.029,0.078,-0.019,-0.037,100.0,101.0,97.0,13.3,1505.3,326.2,-0.7,1.8,2469.971,13.32,0.08,103.7
2019-11-08T23:51:50,42.805,6.029,0.053,-0.013,-0.014,99.0,101.0,98.0,13.4,1505.3,326.1,-0.7,1.9,2469.992,13.32,0.054,103.8
2019-11-08T23:54:53,42.805,6.029,0.062,-0.019,-0.027,101.0,100.0,98.0,13.4,1505.3,325.1,-0.7,1.9,2469.979,13.32,0.064,107.0
2019-11-08T23:57:56,42.805,6.029,0.086,-0.007,-0.023,100.0,102.0,98.0,13.4,1505.3,325.3,-0.7,1.8,2469.986,13.32,0.086,94.7
